RH
68 61 55 50 46 44 43 49 59 66 69 73 80 80 70 58 51 49 46 45 48 50 52 57 63 70 76 72 59 42 31 29 26 29 34 44 80 103 102 105 85 68 76 71 81 102 100 101 104 102 103 103 101 94 88 85 77 63 48 41 41 48 59 62 63 68 74 77 83 96 104 104 102 103 105 103 100 99 97 99 103 105 104 100 95
62 56 53 51 47 44 45 56 61 58 63 71 72 68 61 56 50 42 41 47 48 49 53 56 62 69 66 51 37 31 30 31 29 30 36 55 88 103 100 104 89 82 91 72 69 94 101 100 101 101 100 102 103 97 92 86 71 54 42 38 38 44 54 60 64 71 80 86 87 88 95 102 104 102 102 103 103 101 99 96 96 103 111 107 100
63 60 59 54 47 44 49 59 57 54 63 65 63 64 61 54 42 36 43 47 48 55 59 58 60 57 45 34 33 36 36 32 30 32 44 72 99 101 99 104 97 96 100 82 65 75 88 84 81 91 98 102 104 101 97 83 67 57 49 43 39 39 46 52 56 65 75 83 90 91 89 93 102 108 104 101 105 105 101 100 97 99 108 109 106
71 69 65 56 48 44 52 60 53 58 69 66 65 64 56 46 37 38 44 44 53 65 62 58 57 49 40 37 41 42 37 31 29 33 42 70 98 102 99 100 102 102 100 98 87 74 75 70 61 63 68 76 81 89 94 80 67 62 56 53 44 35 40 45 46 54 65 72 77 84 89 89 93 103 105 100 105 109 103 100 101 100 102 104 105
82 77 68 57 50 45 53 58 51 63 73 66 63 57 49 42 37 38 41 50 70 72 60 57 58 54 50 47 48 43 34 28 26 33 41 57 80 95 102 100 103 104 97 98 91 71 65 60 54 52 53 57 56 62 71 72 72 62 55 57 50 39 40 42 42 44 54 65 71 73 79 85 89 96 102 102 102 107 106 102 100 100 101 99 99
87 80 71 60 51 45 52 54 50 67 71 60 57 53 47 41 37 37 46 68 81 69 60 64 63 62 59 53 50 38 27 25 24 32 42 50 61 72 84 89 95 100 96 93 79 63 64 63 59 58 61 65 66 62 58 72 81 57 45 54 55 50 44 40 41 39 42 51 63 70 72 77 82 88 97 102 101 101 105 105 102 100 101 100 99
88 84 75 62 52 47 53 52 52 68 67 56 55 50 46 41 38 42 57 77 76 68 71 72 70 68 63 55 45 31 23 24 27 34 41 45 50 51 58 73 89 94 85 84 86 82 85 87 82 73 67 69 79 82 77 89 85 47 34 47 57 59 48 41 43 42 39 37 42 54 64 71 76 82 90 98 101 100 100 102 102 101 101 100 101
91 86 76 62 54 52 56 54 55 67 63 53 51 48 47 43 40 47 63 78 76 77 79 76 76 71 63 52 38 28 23 23 27 35 38 37 38 37 43 61 88 97 78 75 94 100 98 101 100 91 76 64 64 67 74 87 72 37 31 44 57 61 50 44 47 48 47 41 36 39 50 63 69 77 83 88 94 100 101 100 101 102 101 100 101
95 88 75 62 59 61 62 57 56 64 59 50 49 49 51 47 47 55 71 84 85 83 79 78 82 73 62 50 33 27 33 43 52 58 59 58 55 47 47 63 91 101 81 71 81 82 84 89 88 83 67 49 44 44 50 61 50 33 36 48 57 57 50 49 51 52 52 47 42 41 46 56 64 71 78 83 89 99 102 100 100 101 100 100 101
96 91 78 66 65 67 68 63 58 61 55 48 48 51 55 53 55 67 82 90 85 81 82 87 88 75 62 48 31 28 41 63 81 90 92 91 90 82 77 85 97 95 81 76 73 64 64 65 63 61 53 44 42 41 42 45 42 38 44 51 54 49 47 49 50 54 57 52 46 43 44 52 60 69 77 84 91 101 105 102 100 100 100 101 101
93 94 82 71 69 65 66 64 56 54 51 48 50 54 60 61 65 76 84 85 80 84 92 96 92 76 62 47 31 28 39 56 74 89 98 100 101 101 99 99 99 97 93 94 92 82 73 65 61 62 66 67 62 58 57 53 46 45 51 55 54 54 56 58 59 61 61 57 51 48 48 52 58 68 81 90 93 96 100 101 101 100 100 100 100
88 92 84 75 72 64 60 58 50 48 49 49 51 57 63 66 71 78 83 85 88 96 99 98 92 77 63 48 31 27 34 43 55 68 81 88 92 96 100 99 99 102 101 102 104 103 95 86 83 86 91 94 90 86 86 80 69 66 72 75 78 84 87 85 82 75 67 61 55 55 61 62 60 65 78 92 97 96 96 99 101 100 100 101 100
89 92 88 80 74 65 58 57 52 50 50 51 54 58 64 67 72 80 89 95 98 101 101 98 93 78 65 50 33 28 31 35 42 50 60 74 86 94 96 96 100 103 102 104 105 103 101 98 98 101 102 103 104 105 104 103 99 94 96 100 99 98 97 99 92 77 70 66 59 65 78 79 71 65 67 78 92 100 101 100 101 101 100 101 100
97 96 91 82 75 66 62 62 57 51 51 53 54 56 64 73 81 90 98 101 100 101 100 98 94 81 69 54 35 29 31 33 37 41 47 57 69 80 84 89 97 100 99 101 103 104 102 100 99 95 90 87 87 86 82 83 84 83 90 97 91 80 82 94 89 76 77 77 72 81 92 89 80 72 65 65 74 87 100 102 100 101 101 101 101
101 96 89 82 73 64 60 60 56 53 54 55 54 62 77 90 96 99 101 101 100 101 98 97 97 85 72 56 37 32 33 33 36 38 40 42 45 49 51 55 60 64 66 68 76 81 79 80 79 70 60 55 55 59 58 56 56 56 62 69 67 62 72 85 84 86 95 92 84 87 94 97 95 89 76 66 64 69 84 95 97 97 97 98 98
100 96 88 79 72 64 58 57 59 61 61 59 67 84 96 100 101 100 101 101 100 99 95 99 101 90 77 58 39 35 35 36 40 41 42 42 42 44 42 40 36 34 36 38 45 51 48 48 47 42 45 51 54 55 53 48 44 43 46 50 54 61 78 90 90 97 105 98 89 85 91 101 103 98 87 79 75 70 73 85 92 94 94 95 93
102 99 89 79 76 74 70 67 68 72 71 71 83 98 100 100 101 101 100 98 96 96 96 104 106 95 84 64 43 39 39 40 43 44 45 46 47 49 49 46 40 34 31 30 34 39 38 36 35 34 40 50 50 42 39 38 36 37 38 40 50 70 93 103 100 100 102 102 99 95 95 97 96 93 85 79 79 76 69 68 73 78 80 81 78
103 102 95 88 89 90 89 84 79 82 88 90 94 99 100 100 101 100 97 93 93 98 102 109 108 98 90 70 47 42 44 45 47 47 49 50 51 53 54 51 47 40 34 31 29 31 31 31 33 34 32 36 36 32 32 35 36 37 38 42 56 80 97 99 99 100 99 101 101 101 100 95 92 94 86 77 74 72 65 59 58 60 59 58 57
107 108 104 99 100 99 99 97 92 90 95 99 101 101 100 100 101 100 95 90 92 97 103 109 107 100 92 77 56 47 49 52 52 52 52 52 54 56 57 56 53 46 38 33 31 30 30 28 28 30 29 30 29 29 31 35 39 41 47 57 66 77 86 87 92 97 97 101 102 102 103 97 95 96 89 79 69 62 60 59 59 59 54 52 54
108 109 107 102 102 101 101 102 98 94 92 94 97 100 101 103 104 100 94 90 89 92 100 107 106 100 92 81 67 54 55 61 60 58 57 56 56 57 60 61 60 55 43 36 35 33 31 29 28 28 30 32 32 34 36 39 44 47 61 86 90 83 88 91 91 87 86 94 100 98 99 100 102 103 95 84 76 72 70 68 65 60 55 53 53
107 110 107 101 102 103 102 100 96 94 94 93 93 95 99 102 102 97 92 89 83 82 92 101 104 103 94 85 76 63 61 68 68 64 63 61 60 59 62 65 66 64 50 39 38 37 35 31 30 32 34 37 39 42 45 47 51 52 64 94 107 99 98 99 98 93 87 89 93 93 95 99 102 104 100 94 92 92 88 81 74 67 60 57 54
102 105 106 102 102 101 97 94 91 93 97 99 95 93 95 98 97 94 88 83 76 73 80 91 101 104 96 89 83 71 67 73 72 69 69 68 66 64 66 67 72 74 59 43 40 40 38 35 34 38 40 42 43 47 53 54 55 56 60 76 94 101 102 101 100 101 97 94 94 94 93 94 96 101 103 102 104 106 105 100 91 84 76 70 62
103 104 103 98 94 92 91 91 94 98 100 100 98 95 94 93 93 91 87 82 76 71 74 86 99 104 98 92 86 76 74 78 76 73 74 74 72 70 70 71 77 83 69 50 44 43 42 40 41 45 47 46 46 46 51 56 57 59 61 65 74 86 95 98 98 101 101 99 98 97 95 92 92 94 95 94 96 100 107 109 106 100 90 79 69
94 93 89 85 85 88 94 96 101 104 103 102 102 101 97 94 92 91 89 85 78 74 78 89 100 103 100 93 84 78 80 82 79 76 78 80 80 77 75 75 80 87 79 58 47 47 46 45 46 49 50 52 54 51 49 53 57 59 64 67 68 71 78 84 89 96 100 101 102 102 102 100 97 95 91 90 90 92 96 101 103 100 91 81 74
82 82 84 87 92 98 102 103 105 106 104 105 107 106 101 96 92 91 89 87 83 81 87 95 101 100 98 92 85 84 85 81 74 74 78 83 85 84 82 82 84 89 87 69 52 51 52 51 51 51 50 54 60 60 56 54 55 56 59 63 66 68 70 72 75 80 85 89 92 95 98 101 102 103 101 98 97 96 97 98 97 94 87 77 68
93 94 98 101 102 103 103 104 107 108 105 104 103 102 99 95 94 92 90 87 86 89 94 99 101 97 96 94 92 90 85 77 71 72 77 83 87 90 87 88 89 91 93 80 59 54 56 57 58 57 55 56 58 60 61 59 58 58 58 59 62 65 66 65 63 63 64 65 67 69 72 77 82 89 96 101 103 103 100 99 97 95 93 87 79
106 103 103 103 101 100 103 108 110 108 104 99 94 92 91 92 94 92 89 90 93 97 99 101 101 101 102 100 93 86 79 74 71 70 77 86 93 96 94 95 98 97 100 91 67 57 61 62 63 64 62 62 61 61 63 63 62 61 61 62 62 63 64 62 56 52 52 54 55 56 56 57 58 61 66 75 86 94 100 102 102 101 100 99 97
105 104 102 102 102 102 104 104 102 98 94 90 86 85 86 89 91 92 93 96 100 103 102 101 103 101 97 90 82 78 76 74 71 73 83 95 101 103 101 103 104 102 106 99 74 61 65 66 66 66 65 67 66 66 67 68 68 66 65 66 66 66 67 66 57 46 42 45 49 53 56 58 58 56 54 53 57 65 75 85 92 96 99 101 101
98 94 93 94 94 93 89 85 82 81 81 79 78 78 79 82 87 92 97 98 99 99 97 95 93 87 81 77 75 75 75 73 73 78 86 93 101 105 104 104 105 106 109 101 79 68 70 73 74 70 67 67 67 67 67 67 68 68 68 69 68 66 66 65 59 49 41 39 41 46 51 56 60 61 60 58 56 54 55 58 64 70 75 80 84
98 90 88 87 85 83 78 74 71 70 71 72 72 71 72 74 78 83 87 88 86 83 81 79 77 75 74 74 74 73 73 75 79 82 85 90 98 105 105 103 102 104 105 94 80 74 75 79 82 80 74 70 68 68 68 67 67 66 63 61 59 58 61 63 60 57 49 40 38 42 46 52 58 60 62 63 63 62 61 59 57 58 59 60 62
101 97 94 91 88 84 77 72 67 66 68 70 73 74 74 74 75 77 79 78 78 77 79 80 79 78 76 75 75 75 77 80 82 84 88 93 99 104 102 98 95 94 92 86 81 81 80 80 81 81 77 73 72 70 69 68 63 57 52 48 46 47 55 66 71 68 56 42 42 49 52 53 55 58 61 63 62 63 66 67 67 65 63 60 58
101 101 101 99 97 91 81 72 66 62 64 68 74 78 80 81 82 83 84 85 88 89 85 79 74 71 71 70 71 72 75 80 83 86 90 94 99 102 98 92 88 85 83 82 84 84 80 75 72 69 67 71 76 76 75 71 61 54 49 47 46 45 50 64 74 70 55 43 48 62 70 71 69 68 69 68 66 65 66 69 69 63 55 52 53
101 102 103 103 104 101 95 86 77 72 75 82 87 89 88 89 91 94 97 97 91 81 70 63 60 59 60 62 63 67 72 78 85 91 94 96 100 101 96 91 87 84 84 84 86 86 79 69 65 61 58 67 77 79 76 69 61 59 56 49 48 50 51 56 62 59 52 48 54 68 83 89 86 84 82 80 77 74 73 71 63 53 49 52 54
101 103 106 105 102 98 96 94 91 89 91 92 90 88 87 90 95 97 94 85 72 64 63 63 60 57 57 59 66 76 82 87 93 97 99 100 101 100 97 92 90 90 88 86 86 85 76 67 64 61 56 61 72 76 73 68 67 66 60 49 48 52 53 55 57 55 53 55 58 65 78 91 98 99 95 88 83 82 83 78 63 53 55 60 60
88 88 94 96 90 83 78 77 77 75 73 68 63 66 75 86 91 85 74 66 64 69 71 67 60 56 55 57 70 86 95 99 101 101 101 100 99 98 97 94 95 95 93 90 86 81 73 69 69 67 59 55 61 67 69 71 72 66 56 50 49 51 54 57 59 60 61 64 65 64 68 76 87 97 101 98 93 90 92 91 81 73 71 68 63
68 66 68 71 69 62 56 55 56 54 50 45 45 53 68 80 82 74 67 68 73 75 71 65 60 58 56 59 73 92 101 104 104 103 103 103 101 99 94 90 91 93 93 89 83 79 79 79 79 75 63 55 58 66 69 68 66 59 52 50 50 52 55 57 59 62 65 69 72 71 69 68 71 79 86 90 90 87 87 87 82 77 70 64 59
59 59 55 53 53 51 47 45 45 44 41 38 41 50 61 73 75 68 66 70 72 68 64 62 60 58 59 65 80 97 102 101 101 102 105 108 104 96 89 84 85 89 90 86 84 88 91 90 88 78 61 53 57 66 72 71 66 60 55 52 51 52 54 56 58 62 66 71 75 76 73 68 66 66 67 69 72 72 72 70 67 64 59 55 54
62 63 57 50 50 50 47 45 46 47 46 46 48 51 58 71 73 61 57 63 64 61 61 62 62 62 63 70 84 99 104 103 103 104 107 108 100 91 88 89 92 94 92 90 92 94 90 89 87 72 53 48 52 58 65 68 65 60 54 51 51 52 52 53 54 57 62 67 70 73 73 71 71 74 79 81 82 82 80 74 66 60 56 54 53
64 64 62 54 50 48 45 47 49 50 49 51 55 59 66 72 66 55 54 60 62 63 64 66 66 67 69 74 85 97 103 103 103 102 99 95 90 90 94 97 100 102 100 96 94 90 87 85 77 59 46 47 51 54 59 60 58 55 53 52 53 53 53 54 55 55 57 59 60 63 68 73 79 88 97 100 101 103 100 88 74 65 61 58 56
76 72 70 64 59 55 52 51 53 55 56 58 61 64 65 62 55 53 59 64 66 68 71 71 72 72 73 76 80 86 90 90 90 89 85 82 87 95 100 100 100 101 99 97 94 87 79 70 58 47 46 48 51 56 63 66 64 60 58 58 58 58 58 59 61 62 62 61 61 60 61 64 69 76 82 86 90 95 95 88 80 76 73 67 63
97 94 90 84 79 77 75 74 75 78 78 76 71 66 62 58 57 61 65 68 71 74 77 79 79 77 74 72 70 70 70 71 74 74 71 72 80 92 100 102 102 102 101 98 91 77 63 55 51 51 52 53 55 60 65 70 72 69 67 66 65 65 67 68 70 72 72 71 69 68 68 68 68 70 72 75 79 82 83 83 82 82 79 74 70
100 102 100 96 93 93 95 97 97 96 93 88 82 76 72 71 70 70 71 74 78 82 87 88 85 79 73 68 64 61 59 60 63 64 63 65 70 79 87 92 92 91 89 83 74 64 60 60 62 61 61 63 67 70 71 72 73 72 72 73 73 75 76 77 78 79 79 79 78 77 78 79 79 80 79 79 79 78 78 78 78 78 77 75 73
99 100 101 101 99 99 100 101 101 100 98 94 89 85 83 80 78 78 81 85 87 91 94 93 86 79 73 68 64 60 58 59 60 62 64 65 66 69 72 74 74 72 71 69 67 67 69 71 71 73 77 83 87 86 84 82 79 78 78 80 81 83 84 86 87 88 87 87 87 88 88 89 90 90 89 87 84 81 79 79 79 78 76 73 70
99 101 103 104 102 101 101 101 101 101 100 97 94 93 91 88 87 90 94 95 94 93 90 84 77 73 70 69 69 68 70 74 76 77 78 79 81 82 83 84 83 80 78 77 77 79 80 82 84 89 93 98 100 99 97 95 93 92 92 93 92 93 94 94 95 96 96 96 96 96 96 97 97 96 94 93 91 90 90 88 85 81 77 71 66
102 102 103 102 101 101 101 101 101 100 99 99 100 100 98 95 94 95 94 90 88 87 84 80 80 81 81 81 84 85 89 94 96 96 97 97 97 98 98 99 98 96 93 92 92 95 96 98 100 102 102 101 101 101 101 101 101 101 100 101 100 100 101 101 101 102 101 100 101 101 101 101 100 98 96 96 97 95 91 85 78 74 69 64 57
101 101 102 101 101 102 102 102 103 102 101 102 105 105 103 99 95 89 85 86 90 93 93 95 99 102 100 98 98 98 98 100 100 100 101 102 101 101 100 100 102 102 101 99 101 103 103 103 103 104 106 106 105 105 105 104 104 104 104 104 103 103 103 102 101 101 100 100 101 100 101 102 101 100 100 99 96 89 79 71 65 60 56 53 49
102 102 102 102 103 102 101 102 105 105 103 102 101 100 97 91 83 78 78 84 89 89 88 90 96 102 105 103 101 101 101 102 102 101 101 102 102 101 100 100 103 105 102 99 102 105 104 103 102 102 103 103 102 103 104 103 103 103 103 103 104 105 106 106 105 104 103 103 103 103 103 103 100 97 93 88 81 73 66 60 56 53 52 50 48
102 100 101 104 107 107 106 104 104 106 109 109 106 101 93 83 74 73 77 80 80 78 79 82 88 96 101 101 100 101 101 101 101 102 103 103 103 103 102 102 105 107 105 104 106 106 100 95 92 91 92 91 89 86 84 84 85 85 85 86 88 89 92 94 96 97 97 96 95 92 90 86 82 78 74 71 67 64 60 55 52 51 50 48 46
87 87 90 92 94 97 102 104 104 104 105 106 106 103 98 92 87 87 91 93 91 91 92 94 96 99 101 101 102 103 102 100 100 100 100 100 101 102 101 99 98 99 98 97 95 92 86 80 77 77 78 78 78 76 75 75 75 75 75 76 77 78 80 81 81 81 80 80 79 78 76 75 73 72 71 70 68 66 63 58 53 48 45 43 41
78 79 84 86 83 84 91 100 104 101 95 94 99 101 100 100 100 100 101 103 102 101 102 102 102 102 106 108 108 109 108 106 103 100 99 100 101 101 100 98 95 93 93 91 88 84 79 76 75 78 80 83 86 88 90 91 91 90 90 89 89 89 88 86 85 84 84 85 85 85 86 87 86 84 82 80 78 75 69 61 53 47 42 39 37
70 73 78 85 87 87 92 101 103 99 95 96 100 102 100 101 102 103 104 105 104 101 101 103 103 105 108 109 108 109 107 105 104 103 102 103 101 100 99 97 94 94 95 92 87 83 79 76 79 84 88 92 95 99 102 103 105 107 108 106 105 104 103 101 99 98 97 98 99 101 102 102 101 97 91 86 83 81 74 65 56 49 44 38 35
Wind_Speed
38 39 38 39 41 41 39 39 37 34 31 30 29 29 30 30 30 29 28 24 18 17 20 24 28 32 34 35 34 31 29 29 30 31 31 29 24 20 19 18 16 15 12 9 10 11 11 12 11 12 12 13 13 13 13 13 12 13 16 17 18 19 20 21 22 23 24 26 27 28 27 27 27 27 27 27 28 29 29 29 29 29 30 31 31
40 40 40 41 41 39 37 35 33 31 29 28 28 28 28 28 27 27 24 19 16 18 22 26 29 32 34 32 29 27 28 30 31 31 30 28 23 20 20 17 15 14 12 10 11 13 13 15 16 16 16 16 14 13 13 12 12 14 16 17 18 19 19 20 21 22 23 25 27 29 30 29 28 28 28 28 28 28 30 30 30 30 30 31 31
41 42 42 42 40 38 36 33 31 30 27 27 26 25 25 25 25 24 20 16 17 21 24 26 28 30 30 27 27 29 32 33 33 30 28 26 23 21 20 17 15 15 15 13 13 15 16 17 18 17 16 16 15 14 13 13 14 16 18 19 19 19 19 20 20 21 23 25 26 28 31 32 31 30 30 29 29 29 30 31 31 31 31 31 30
43 43 42 41 40 37 35 33 32 30 27 26 24 23 23 23 23 22 18 16 19 22 25 26 26 27 27 27 30 33 34 33 32 29 26 24 23 22 21 19 17 18 19 19 17 17 18 18 18 16 16 16 17 16 16 15 16 18 20 20 20 18 18 19 19 20 22 24 27 29 31 32 33 32 32 31 30 30 30 32 33 32 32 32 31
43 43 42 41 40 37 35 33 33 30 28 26 24 23 22 22 22 20 18 18 20 23 25 25 25 26 26 28 31 33 34 32 29 26 23 21 22 24 26 24 22 21 21 21 21 20 19 18 17 17 18 18 19 20 19 18 18 21 22 22 20 18 17 17 17 18 20 22 25 27 30 32 33 34 33 32 32 31 31 31 33 33 33 33 33
44 44 43 42 40 37 35 34 33 30 28 26 24 23 23 23 21 19 18 19 21 24 25 25 25 25 26 29 31 31 30 27 24 22 18 16 16 19 23 24 23 22 21 22 23 22 20 19 19 19 20 20 20 20 21 20 22 25 25 24 22 20 18 17 17 16 17 19 21 24 27 30 32 33 33 33 33 33 32 32 33 34 34 34 34
44 44 43 42 40 38 35 34 33 30 28 28 26 25 25 23 21 18 19 20 23 24 25 25 26 26 27 29 29 27 24 22 20 18 15 14 12 12 13 15 15 17 19 22 24 24 24 23 22 21 22 23 23 22 23 24 26 27 27 27 25 23 22 19 19 19 19 19 20 22 24 27 30 32 33 34 34 34 34 33 33 34 34 34 35
45 44 44 42 40 38 36 34 33 31 30 30 28 27 26 24 21 19 20 22 24 25 26 28 28 28 28 29 28 24 22 21 19 17 14 13 11 10 9 8 10 14 18 21 24 26 26 25 25 25 25 25 26 25 25 26 27 28 28 28 27 26 25 23 23 23 23 22 21 21 23 25 28 30 32 33 34 35 34 34 33 34 35 35 35
45 44 43 42 40 38 37 35 34 32 32 31 30 28 26 24 22 20 22 23 25 26 29 30 30 28 28 28 27 23 21 21 20 18 16 14 13 11 8 6 8 14 19 21 23 24 25 27 27 27 25 25 25 25 25 26 27 29 29 28 28 28 26 25 26 26 25 24 22 22 23 24 26 28 30 31 32 33 34 34 34 35 36 36 36
45 44 43 42 41 40 39 37 34 33 33 32 29 27 25 24 22 22 23 25 26 28 30 30 29 28 27 27 24 20 18 17 16 15 15 14 12 10 7 5 9 15 20 21 21 22 24 25 26 26 26 25 26 26 27 27 28 29 28 28 29 28 27 27 29 29 27 26 24 23 24 25 25 26 27 29 30 31 32 33 33 34 35 36 36
45 44 44 43 42 42 40 37 34 34 34 32 29 26 25 24 23 24 25 27 29 30 29 28 27 27 27 25 21 17 15 14 13 13 12 12 12 11 10 10 13 17 19 20 20 22 22 23 24 26 26 26 27 28 28 29 29 29 28 29 29 29 29 29 31 30 29 27 25 24 25 25 26 26 26 27 28 29 30 31 31 32 34 36 36
46 46 46 45 44 42 39 36 34 34 33 30 27 26 25 24 24 25 27 29 30 28 27 26 27 28 26 24 20 15 13 13 12 12 12 14 15 16 16 17 19 20 21 22 23 24 23 23 25 27 28 29 29 29 29 28 29 29 30 30 31 32 31 32 32 31 29 27 24 24 25 26 27 26 26 27 27 27 27 28 29 31 34 35 36
47 47 47 46 45 43 40 37 36 34 31 28 27 26 25 25 24 26 28 29 28 26 26 27 28 27 25 23 19 14 12 12 12 12 13 15 17 19 21 23 24 26 26 27 29 29 25 24 27 30 33 35 35 34 33 32 32 32 33 34 35 35 34 33 32 31 29 26 25 25 26 26 27 27 26 27 28 28 28 28 30 31 34 35 36
47 47 48 47 45 43 41 39 36 33 30 28 26 26 25 25 26 27 28 28 27 26 27 28 28 27 25 23 18 14 12 11 12 12 13 14 17 19 22 25 27 29 29 30 31 31 29 28 31 34 35 36 37 36 35 35 35 35 36 36 36 36 35 33 31 29 27 26 26 27 27 27 27 27 27 27 28 29 31 31 32 33 34 35 36
47 48 48 46 43 41 40 38 35 32 29 28 27 26 26 27 28 28 28 28 27 28 29 30 29 26 25 23 19 14 12 11 12 13 14 14 15 18 20 22 25 27 28 28 29 30 30 31 33 35 36 35 34 33 32 32 33 35 35 35 36 36 34 32 29 26 26 26 27 29 28 26 25 25 26 27 28 30 31 32 33 34 35 36 37
48 48 47 45 42 40 38 36 34 32 30 28 26 27 29 30 30 29 29 30 30 30 31 31 29 25 24 24 20 16 13 12 13 15 16 16 16 18 19 21 23 25 26 27 27 29 31 32 32 33 32 31 29 28 28 30 31 32 33 33 34 33 32 29 24 21 24 26 27 27 26 25 24 24 24 25 27 29 30 32 33 34 35 35 36
48 47 45 43 40 38 36 35 33 32 29 26 25 28 31 32 32 32 32 32 31 32 32 31 29 25 24 24 21 18 15 14 15 17 18 19 19 20 21 22 23 25 26 27 28 30 32 32 32 31 30 29 29 29 29 30 31 31 31 31 30 29 28 25 19 18 22 25 27 26 26 26 26 26 27 27 27 28 29 30 32 33 35 36 36
47 45 43 41 38 36 35 34 33 31 28 25 27 31 33 33 34 34 33 32 32 32 32 31 29 25 24 25 23 20 18 17 18 19 21 21 21 22 23 24 25 25 26 27 28 29 30 31 30 30 30 30 31 31 30 29 30 31 30 29 27 25 25 23 21 21 22 24 26 27 29 29 29 29 30 30 30 29 30 30 32 33 34 35 35
46 44 42 40 38 37 36 34 33 30 27 26 28 31 33 35 36 34 33 31 30 31 31 31 29 26 25 25 25 23 20 20 20 22 23 24 24 24 25 26 26 27 27 27 27 28 28 29 29 28 28 29 30 30 29 27 28 29 29 28 26 24 23 23 23 24 25 26 28 30 32 31 31 31 32 31 32 32 32 33 34 35 35 34 35
47 45 43 41 39 38 36 35 34 32 30 29 28 30 32 34 34 33 31 29 28 29 30 30 28 26 26 26 25 25 23 22 23 24 25 26 26 26 27 27 28 28 28 27 27 28 28 28 27 26 26 27 27 27 27 26 26 27 27 27 27 26 25 25 26 26 26 28 30 32 34 33 32 34 35 35 36 35 35 36 36 37 36 36 36
48 47 45 43 41 39 38 37 36 35 33 31 30 30 31 32 32 32 30 28 27 27 28 28 27 27 27 26 26 26 24 24 25 26 28 28 28 29 29 29 29 29 29 28 28 28 28 27 27 25 24 24 25 25 25 25 24 25 26 27 28 28 27 27 29 30 30 29 30 31 33 34 34 36 38 38 38 38 38 38 38 38 38 37 36
48 48 47 46 44 42 41 39 38 36 34 33 32 31 31 32 32 32 31 29 28 28 27 27 27 27 28 28 27 27 26 26 27 29 30 30 31 31 32 31 31 30 30 29 29 29 28 27 26 25 25 24 24 24 24 24 23 23 24 26 28 30 31 30 30 31 32 32 32 33 34 35 36 37 38 39 39 39 40 40 41 40 39 39 38
47 47 47 46 45 43 41 40 38 36 35 35 35 34 33 33 33 33 32 31 30 29 28 27 27 28 29 29 28 28 28 29 30 31 32 32 32 33 33 33 33 32 31 30 29 29 29 27 26 26 26 26 25 24 23 23 23 22 22 23 25 28 32 33 34 34 35 35 35 36 36 37 37 37 38 39 39 39 40 41 42 43 42 41 40
46 46 45 44 42 41 40 39 38 37 36 36 36 35 35 34 34 34 33 32 31 29 28 27 28 29 30 30 30 30 30 31 33 34 34 33 33 34 34 35 35 34 32 31 29 29 29 28 28 27 27 26 25 25 24 24 23 23 22 22 22 24 26 29 32 34 36 38 39 39 39 37 37 37 38 39 40 41 41 43 43 44 44 43 43
43 42 41 40 39 38 38 38 38 37 37 36 36 35 35 35 34 34 33 31 30 29 28 28 29 30 32 32 32 32 33 34 36 37 35 34 33 34 35 36 36 36 34 33 31 30 30 30 30 31 30 28 26 25 25 25 24 24 24 23 23 23 24 25 27 30 33 36 38 40 41 40 39 39 39 40 42 43 44 45 46 47 47 47 46
37 37 36 36 37 37 37 37 37 37 36 36 36 36 35 34 34 33 32 31 30 29 29 30 31 32 33 33 34 35 36 37 38 37 36 34 34 35 36 36 37 37 36 35 33 32 32 32 33 33 32 31 30 28 27 25 25 24 25 25 26 26 26 26 28 30 32 34 36 38 39 41 42 42 43 43 44 45 46 46 47 48 49 49 49
34 35 35 36 36 36 36 36 36 36 36 36 36 35 35 34 33 32 31 31 30 30 30 31 32 33 34 35 36 37 38 39 38 37 35 34 35 36 37 37 38 38 38 37 35 34 34 34 35 35 34 34 34 33 31 29 28 26 26 26 26 26 26 27 29 31 33 35 37 38 40 41 42 44 45 47 48 48 49 49 49 49 49 49 50
34 35 35 35 36 36 35 35 35 35 35 35 34 34 33 32 32 32 31 31 31 31 32 32 33 34 36 37 38 39 40 39 38 36 35 35 36 37 38 38 38 39 40 39 37 36 35 36 36 36 36 35 35 35 34 34 33 32 30 30 30 30 30 32 33 33 35 36 38 40 41 43 44 46 47 49 49 50 52 53 53 54 53 53 53
35 35 35 35 35 35 34 34 33 33 33 33 33 32 32 31 31 31 32 32 32 33 33 34 35 37 38 39 40 40 39 38 37 37 36 37 37 38 39 39 40 41 41 40 38 37 37 37 37 37 37 36 36 35 34 34 34 34 33 33 33 34 35 36 37 36 36 38 39 41 43 44 45 47 49 50 51 52 53 54 55 55 55 56 56
35 35 34 34 34 34 33 32 31 31 31 32 32 31 31 31 31 31 32 32 33 34 35 36 38 39 40 40 40 40 39 39 39 39 38 38 39 39 40 40 41 41 41 40 38 37 37 38 38 38 38 38 37 36 34 33 32 32 32 33 35 36 37 38 39 38 38 39 40 42 43 44 46 48 49 51 52 53 54 54 55 55 55 55 56
34 33 32 32 31 31 30 29 28 28 28 29 29 29 29 29 30 31 32 33 34 35 36 37 38 39 40 40 41 41 41 41 41 40 40 40 40 40 40 41 41 41 41 40 38 38 38 38 38 38 39 39 38 36 35 33 31 30 31 34 37 38 39 39 40 39 39 40 41 42 44 44 45 47 49 51 52 53 53 53 53 51 50 50 51
32 31 30 29 28 27 27 26 26 25 25 25 26 26 27 29 30 31 32 33 34 34 35 36 38 39 41 42 42 43 43 42 41 41 40 40 40 41 41 41 42 42 42 40 38 38 38 38 36 36 37 38 37 36 35 33 31 30 32 36 38 39 40 40 41 41 41 41 41 42 43 43 44 45 46 49 50 52 51 51 49 46 44 44 45
31 30 29 28 27 26 26 25 25 24 24 24 25 26 27 28 29 30 31 32 33 33 34 36 38 40 42 43 44 44 43 42 41 40 40 40 40 41 41 42 43 44 43 41 40 39 38 36 34 33 34 34 34 34 34 35 35 35 38 39 38 39 41 42 43 42 41 40 41 41 41 41 43 44 45 46 48 49 49 48 48 47 47 48 47
30 29 29 28 27 26 26 25 25 24 24 24 26 27 28 29 29 30 31 31 33 35 37 39 40 41 43 44 45 45 43 42 41 41 41 40 41 42 43 43 44 45 44 42 41 40 38 36 34 32 32 32 33 34 36 38 39 40 43 43 40 39 39 41 43 44 41 39 39 40 40 40 41 42 44 46 47 49 49 50 52 54 56 57 55
32 31 31 30 29 28 27 26 26 26 27 28 28 29 29 31 31 32 32 34 36 39 41 41 41 42 42 43 44 44 43 43 42 42 42 42 42 43 44 44 44 45 44 43 42 41 40 38 36 35 33 32 33 35 38 40 42 44 46 45 41 38 37 37 39 41 41 40 40 40 40 41 42 42 43 46 48 50 52 54 57 60 62 62 60
35 34 34 34 34 33 33 32 32 32 32 32 32 32 31 31 33 35 36 39 41 43 43 43 43 43 43 42 43 43 44 44 44 44 44 45 45 45 44 43 43 44 44 44 43 42 41 40 41 40 37 35 34 35 39 42 44 46 46 44 42 40 38 37 37 37 39 41 42 42 41 43 44 45 47 48 50 52 54 56 58 60 61 61 61
37 36 37 37 37 37 37 36 36 35 35 36 36 35 34 35 37 39 42 44 45 45 45 46 46 44 43 43 43 43 44 45 46 47 47 47 46 45 44 43 43 43 44 44 44 44 43 44 45 43 42 41 39 38 41 44 45 46 45 45 44 43 41 40 39 39 39 40 42 42 42 42 44 46 48 49 50 52 53 54 54 55 55 56 57
37 37 39 39 39 39 38 37 37 38 39 39 40 39 40 41 43 45 47 48 48 49 48 48 46 45 43 43 43 44 45 47 48 48 48 47 46 45 44 43 43 44 45 45 46 46 47 48 48 46 45 45 44 43 43 45 46 47 47 47 46 45 44 43 42 42 42 42 42 43 43 44 45 47 49 51 53 54 54 54 54 54 54 54 55
40 39 40 41 42 42 42 41 41 42 43 43 43 44 44 46 47 49 51 51 51 51 50 48 46 45 43 43 44 45 46 46 46 46 45 44 44 44 44 45 46 47 48 48 49 50 51 51 50 48 48 49 48 47 47 47 48 49 50 50 50 49 48 47 47 47 47 47 47 46 47 47 48 50 53 55 57 59 60 60 59 59 59 59 59
42 41 42 44 45 45 45 45 46 46 47 47 47 48 49 50 52 53 54 53 52 51 49 47 46 44 43 43 44 44 44 44 43 42 42 43 44 45 46 47 49 50 51 51 52 52 52 52 51 51 52 52 52 51 51 52 52 53 54 54 54 54 54 53 53 53 53 53 53 53 53 53 53 54 55 57 58 60 62 62 63 64 65 65 64
46 45 46 46 46 46 46 46 47 48 49 49 50 51 53 55 56 56 55 53 52 50 48 47 45 44 43 43 42 42 42 42 42 42 43 44 45 46 48 50 51 53 54 54 54 54 54 54 54 55 56 56 56 55 55 56 57 58 59 59 60 60 60 60 59 59 59 59 58 59 59 59 60 61 61 62 63 64 64 65 66 68 68 69 69
48 48 49 48 48 48 48 48 49 50 52 53 55 56 56 57 56 56 55 53 51 49 48 46 45 44 43 41 41 41 42 42 43 44 45 46 46 47 49 51 53 54 55 55 56 56 56 57 58 59 60 60 60 60 60 61 62 63 64 65 65 65 65 65 65 65 65 64 64 64 64 65 66 67 68 69 69 70 70 70 71 71 72 72 72
47 48 49 50 51 51 52 53 53 54 56 57 58 58 57 57 57 56 54 52 51 49 47 46 45 43 42 41 41 42 42 43 44 45 46 46 47 48 49 51 53 54 55 56 56 57 59 60 61 62 62 62 62 63 64 65 67 68 69 69 69 69 69 69 69 69 70 69 69 69 69 70 71 72 73 74 75 76 76 76 76 76 76 76 75
51 52 53 54 55 55 56 56 57 58 58 58 58 58 58 58 57 55 53 52 51 50 49 47 45 44 43 43 43 44 44 44 45 46 47 48 49 51 52 53 54 55 56 57 59 61 62 63 63 63 64 64 65 66 68 69 70 71 71 72 72 73 73 73 73 73 73 73 73 73 73 74 75 76 77 78 79 80 81 81 81 81 80 80 78
58 58 58 59 59 59 60 60 61 61 61 60 60 59 59 58 56 55 54 54 53 51 49 47 46 46 46 46 46 46 46 47 48 49 50 52 53 54 55 57 58 60 61 62 63 64 64 64 65 65 66 68 69 70 71 72 73 74 74 75 75 75 76 76 76 76 76 76 76 76 77 78 79 80 81 82 83 84 84 85 84 84 83 82 80
62 62 62 62 62 62 63 64 64 65 64 63 63 61 60 58 56 56 56 54 52 49 47 46 47 49 50 50 49 49 50 51 53 54 55 56 57 59 60 62 63 65 66 66 67 67 67 67 68 69 71 72 74 75 76 77 77 77 78 78 78 78 78 78 78 78 79 79 80 80 81 83 84 85 85 86 87 87 87 87 86 85 84 82 79
62 63 63 64 64 65 65 66 66 67 67 67 66 65 63 62 61 60 58 54 52 51 51 51 52 53 54 54 54 54 54 55 56 57 59 60 61 63 64 66 67 69 69 70 70 71 72 73 74 75 76 77 78 79 80 81 81 80 80 80 80 80 80 80 81 81 82 83 84 85 85 86 88 88 89 89 90 90 89 88 87 85 83 81 78
64 65 66 66 67 67 68 68 68 68 67 67 66 66 67 68 67 65 62 61 60 60 60 59 59 59 59 60 60 60 61 61 62 63 63 65 66 67 68 68 70 71 71 72 74 75 77 79 80 80 80 80 80 80 80 80 79 79 79 78 78 79 79 80 81 83 84 85 87 87 87 88 88 88 89 90 90 90 90 88 86 84 82 80 77
68 69 70 70 70 69 69 70 70 69 68 67 66 65 67 68 67 65 64 64 65 66 66 66 66 65 66 66 67 67 68 68 69 70 71 72 73 74 74 75 75 76 77 78 79 79 80 81 82 82 82 81 81 80 79 78 77 76 76 76 76 76 77 78 79 81 82 83 84 85 85 86 87 87 88 89 89 90 89 88 86 83 81 78 76
71 71 72 72 72 70 69 70 72 71 71 71 70 70 69 69 68 68 67 68 70 71 71 72 72 72 73 73 74 74 74 74 75 75 76 77 78 79 80 81 81 81 81 81 81 81 82 82 81 81 80 80 78 77 77 76 76 76 76 76 76 77 78 79 79 80 81 82 83 84 85 86 87 88 89 89 90 91 91 90 87 85 83 80 77
75 74 74 74 73 72 71 73 74 74 73 72 72 72 72 72 72 73 73 74 75 76 76 76 77 78 79 79 80 80 80 80 80 80 81 81 81 81 82 82 82 82 82 82 82 83 82 82 81 80 79 78 77 76 75 75 75 75 76 76 77 78 80 81 82 82 83 84 85 86 87 88 90 92 92 92 92 93 94 93 91 89 88 85 81
Wind_Direction
295 297 299 303 307 307 305 304 304 307 309 307 307 307 307 308 309 309 311 313 310 309 318 326 328 323 320 319 318 319 318 315 310 304 298 298 295 283 273 278 293 289 267 272 294 297 297 291 285 280 278 278 277 276 278 280 283 292 299 301 301 296 288 279 270 266 263 258 253 252 251 251 251 253 254 254 253 252 250 250 250 250 249 247 245
295 297 300 305 307 307 305 305 307 311 312 310 308 307 306 307 307 309 310 308 307 317 328 331 326 320 317 317 318 319 319 316 310 303 296 294 289 277 272 279 291 287 269 269 285 285 282 281 281 280 279 279 278 278 279 280 287 299 304 306 306 301 292 283 273 266 263 261 257 253 251 249 249 251 252 252 253 253 251 250 250 249 248 247 246
295 298 302 305 306 306 305 306 309 312 313 312 310 307 305 305 307 309 308 305 313 326 331 329 323 318 315 315 317 319 319 316 311 304 293 286 280 273 275 279 285 285 275 269 277 279 276 277 278 279 280 277 276 276 277 277 287 301 305 306 308 306 298 288 279 268 260 258 257 253 251 249 248 249 250 251 251 252 252 250 249 249 247 245 244
295 298 301 304 305 305 304 304 308 310 311 311 308 305 305 308 311 311 306 308 320 327 328 325 321 316 313 313 317 319 319 316 312 307 296 280 268 266 273 278 278 280 276 269 271 276 277 279 279 280 283 283 280 277 276 276 286 300 302 303 306 309 308 299 287 276 265 259 256 254 251 249 248 248 249 250 251 251 252 251 249 248 246 243 242
295 297 300 303 304 304 302 303 307 308 308 308 306 306 308 312 314 310 308 313 319 322 323 323 320 315 312 314 318 319 318 317 316 312 304 286 267 263 268 273 277 276 271 267 269 273 276 280 284 286 288 289 287 282 278 276 285 298 301 301 301 304 312 312 301 287 275 267 262 258 253 250 249 249 249 250 251 252 252 251 250 249 247 244 242
293 295 298 302 302 301 300 302 306 306 305 306 306 308 311 315 316 312 311 312 313 317 322 322 319 314 312 316 319 319 319 322 327 326 321 308 289 279 276 277 278 272 266 266 271 276 279 282 286 290 290 291 289 283 276 274 285 297 301 299 296 296 303 313 314 305 291 280 271 265 259 253 251 250 249 249 251 252 251 251 250 249 249 247 246
291 293 297 300 300 300 299 301 304 303 303 305 306 308 311 315 317 313 309 307 309 316 320 319 317 314 313 317 319 320 323 332 342 345 344 337 328 321 310 298 288 278 272 272 275 280 282 283 286 289 290 291 289 283 275 274 284 294 297 296 292 289 291 300 312 316 312 302 286 275 267 259 253 250 249 248 249 251 252 251 250 249 249 250 249
290 292 296 298 298 298 298 299 301 299 300 304 305 307 311 315 316 312 307 305 309 314 316 317 317 316 318 320 320 323 333 345 354 356 356 355 355 2 359 328 300 288 283 278 276 278 280 281 284 285 285 287 287 284 280 277 282 288 289 289 286 284 285 292 304 311 315 314 301 286 276 267 258 252 250 249 248 250 251 252 251 249 249 250 250
289 291 295 296 295 296 296 296 297 295 298 302 304 307 309 313 314 310 306 305 307 311 314 315 315 318 322 322 321 328 340 347 348 349 348 350 354 5 12 341 293 279 278 278 274 274 275 276 277 277 277 279 281 281 279 276 278 281 282 283 282 281 280 286 297 304 308 310 303 290 280 274 266 256 252 251 250 250 251 252 252 250 248 249 250
287 289 292 293 293 295 295 294 293 292 296 301 303 305 307 310 311 307 303 303 306 310 312 313 314 319 323 322 322 331 342 341 335 330 329 331 335 341 343 309 270 264 268 271 271 271 272 272 273 273 272 273 274 275 275 273 275 276 277 279 279 278 278 282 291 297 301 303 300 291 279 274 270 262 254 252 252 251 252 252 253 252 250 249 250
285 287 290 291 292 294 293 292 290 291 295 298 301 303 303 305 306 302 301 302 306 309 309 310 313 318 321 321 321 330 340 339 328 314 303 298 297 299 297 280 269 268 271 275 275 271 269 272 273 271 271 273 272 272 272 273 273 272 274 276 276 277 279 283 286 291 296 297 295 289 278 270 269 265 258 254 254 253 253 253 254 254 251 249 250
284 285 288 289 291 293 292 290 290 292 294 296 299 300 299 300 301 300 301 303 304 305 305 308 313 317 318 317 317 326 336 339 333 318 301 287 278 275 272 266 267 272 278 283 282 277 275 277 275 273 275 279 278 277 278 276 273 271 273 274 275 279 281 282 284 287 291 289 285 280 272 267 265 263 260 256 255 255 254 254 253 252 249 248 249
283 284 287 288 289 289 289 289 291 293 294 295 296 295 296 298 299 300 300 301 300 300 303 308 312 314 314 311 310 317 328 333 334 328 312 296 285 277 272 268 269 274 278 279 279 280 280 274 272 276 280 283 282 282 282 280 278 276 275 276 277 280 281 280 281 284 285 281 278 273 266 263 261 259 259 257 255 253 253 253 251 250 248 248 249
282 284 286 287 287 287 288 289 291 292 292 292 293 293 295 297 298 298 297 296 296 298 302 307 310 310 309 306 303 308 319 327 334 333 323 308 296 288 282 278 276 278 280 279 279 279 276 270 272 279 282 283 283 283 282 279 279 277 275 275 276 277 277 275 278 281 279 274 271 267 261 259 258 257 258 258 257 254 253 252 251 251 250 251 252
282 284 285 286 286 287 289 289 290 291 291 291 292 292 293 293 294 293 292 292 293 296 301 305 307 305 303 300 296 299 308 319 329 333 328 318 309 303 297 290 286 284 283 283 283 282 278 276 279 283 285 286 284 283 282 279 277 276 274 274 274 274 273 272 276 275 270 267 264 262 259 256 256 257 257 258 258 257 255 254 254 254 254 255 256
283 284 284 284 285 287 289 290 290 290 290 290 289 286 286 287 287 287 289 290 291 294 299 302 303 299 296 293 289 291 298 306 317 324 324 318 315 314 309 302 297 292 289 287 287 287 286 285 287 288 288 287 284 283 283 282 281 280 278 276 273 270 269 272 275 268 262 264 264 260 254 251 253 256 257 257 256 256 256 256 256 257 257 258 259
282 283 283 284 286 288 290 290 290 290 289 289 283 280 281 281 282 284 286 288 290 293 296 298 298 294 289 286 283 284 290 297 305 313 316 315 315 315 312 307 302 298 294 292 290 289 290 291 292 291 289 286 285 287 288 288 287 285 283 278 273 268 265 266 265 258 258 263 265 263 257 253 254 255 257 258 257 256 256 257 258 258 258 258 259
281 282 283 284 286 288 289 290 289 289 288 284 278 276 277 277 279 281 282 285 288 291 293 294 293 288 283 281 279 279 285 291 297 305 310 311 311 311 309 306 303 299 295 293 292 291 292 293 292 290 287 284 284 287 289 287 285 285 284 281 274 268 264 260 254 251 255 260 262 262 261 260 259 259 258 258 258 258 259 260 260 260 260 260 261
278 279 281 284 286 286 286 286 285 285 282 277 272 271 272 273 276 278 280 284 287 289 290 290 289 282 276 276 276 276 282 288 293 300 305 306 306 305 304 304 304 301 297 294 294 295 296 295 295 293 290 288 288 289 289 287 285 284 283 280 276 271 266 261 256 254 256 259 259 258 259 262 263 263 263 263 263 264 264 263 263 263 263 263 264
276 277 279 282 284 284 283 282 281 279 277 274 270 268 269 271 274 277 281 284 286 288 288 287 284 277 272 273 273 273 279 286 292 298 302 302 300 299 300 302 304 303 299 296 296 297 298 299 298 297 296 295 295 295 294 291 288 285 280 275 273 273 273 270 266 263 263 263 260 259 260 262 264 266 269 271 272 271 270 268 266 266 266 266 265
275 275 277 280 281 281 280 279 278 277 275 272 270 269 269 271 274 278 281 283 285 287 286 284 280 274 270 271 271 272 277 285 292 297 300 299 296 295 297 300 302 303 300 296 295 297 299 300 300 300 300 300 299 298 296 293 289 284 278 269 262 263 267 270 270 269 270 269 265 262 263 265 267 270 272 274 274 274 273 272 270 270 269 268 267
274 274 275 277 279 279 278 278 277 275 272 270 269 269 270 272 275 278 281 283 285 285 283 281 278 272 270 270 271 271 275 283 291 296 298 296 293 292 294 296 299 301 300 296 294 296 298 299 299 299 300 299 298 295 292 290 287 282 276 268 260 255 255 258 262 265 268 270 267 265 266 268 269 270 271 272 273 272 272 272 272 272 271 270 269
273 273 274 276 277 278 277 277 275 272 269 268 268 269 270 272 274 277 279 281 283 283 281 279 276 273 271 271 272 271 275 282 289 294 295 293 290 289 290 292 294 297 298 295 293 294 296 297 295 294 295 295 294 291 287 284 283 280 275 270 264 258 254 253 255 257 260 261 262 263 265 266 266 266 267 268 269 269 270 270 270 271 271 271 271
272 273 274 275 276 276 275 273 271 269 267 267 267 268 269 271 273 275 277 279 280 280 278 277 276 274 273 274 274 275 278 283 289 293 294 290 288 287 286 288 290 293 295 294 291 291 293 293 290 289 290 290 289 288 285 281 278 276 274 271 267 264 260 258 257 257 257 257 259 261 263 263 262 261 261 262 263 264 264 265 266 266 267 268 269
273 273 273 273 273 272 271 269 268 266 266 266 266 267 269 270 272 274 276 277 277 277 277 277 276 276 275 276 276 277 280 286 291 293 292 289 286 284 284 285 287 290 293 293 290 288 289 289 287 286 285 284 283 283 282 280 276 272 269 267 266 265 264 264 263 262 261 261 261 263 265 265 264 261 259 258 258 258 258 259 260 262 263 264 265
270 270 269 269 268 267 267 266 266 265 265 265 266 267 269 270 271 273 274 274 275 276 277 278 278 277 276 276 277 278 282 286 290 291 290 287 284 283 283 284 285 287 290 291 288 285 286 286 285 284 283 281 279 278 277 276 273 270 267 265 263 261 262 262 263 263 262 262 263 264 265 266 266 265 263 261 259 258 258 259 259 259 261 262 263
265 265 264 263 263 263 263 264 264 264 264 265 266 267 268 269 270 272 272 273 275 276 277 277 277 276 275 276 277 279 283 286 289 288 287 285 283 282 282 283 284 285 288 288 286 284 285 285 284 283 281 280 279 277 275 272 269 267 265 263 260 258 259 263 266 265 264 263 262 262 263 264 265 265 265 264 263 262 261 261 260 260 260 261 261
261 261 261 262 261 261 262 262 264 265 266 267 267 268 268 269 270 271 272 274 275 276 276 275 275 275 275 277 279 282 285 287 288 287 285 283 282 281 281 281 282 283 285 286 284 282 283 285 285 283 281 280 279 278 276 274 271 269 267 265 263 261 263 268 270 270 269 266 264 262 261 261 262 262 263 264 264 264 263 263 263 263 262 262 263
262 261 262 262 262 262 262 264 265 266 267 267 268 268 269 269 270 271 272 274 274 275 275 275 275 276 278 280 283 285 286 287 286 285 283 282 281 280 279 279 279 280 282 282 281 281 282 284 286 284 282 280 279 277 276 275 274 272 271 270 268 268 268 270 271 271 271 269 267 265 263 262 261 261 261 262 263 263 263 264 264 264 265 265 266
263 263 262 262 263 264 265 265 266 266 267 268 269 271 271 272 272 272 273 273 274 275 276 277 278 280 282 284 285 287 287 286 284 283 282 281 279 278 277 277 277 277 278 278 278 279 281 284 286 285 282 280 279 276 274 274 274 273 274 274 274 272 270 270 271 271 272 272 270 268 266 265 263 262 262 262 263 263 264 265 265 266 267 269 270
263 264 264 264 264 264 264 265 265 266 267 270 272 274 276 276 276 275 275 276 277 279 280 282 283 285 286 286 286 286 286 285 283 282 281 280 278 277 276 276 276 276 276 275 276 277 279 283 285 284 282 280 278 275 272 271 270 272 278 281 279 275 272 271 270 270 272 273 272 270 269 268 267 266 265 265 265 265 266 267 268 270 271 273 274
259 262 264 265 264 264 264 264 264 265 268 271 274 276 278 278 278 279 279 280 281 282 284 286 288 289 288 288 288 288 287 285 284 282 281 279 277 276 276 277 276 276 276 275 275 275 278 283 284 283 283 280 276 273 270 268 267 274 288 290 282 276 272 270 270 271 273 273 272 270 270 270 270 269 269 269 269 270 270 270 269 268 270 272 273
256 258 261 264 266 266 267 267 267 267 268 271 273 275 276 277 277 278 278 280 282 284 287 290 292 291 291 290 290 289 288 286 284 282 281 279 277 276 277 278 278 278 277 275 274 274 278 281 280 282 284 281 275 270 267 266 265 275 292 296 286 277 273 271 270 270 270 271 271 270 270 272 272 272 273 273 274 274 272 269 266 265 270 273 274
256 258 261 264 265 267 268 268 268 268 267 268 271 273 274 274 273 274 276 279 283 287 291 294 295 294 293 291 289 288 287 285 283 280 279 278 277 277 279 280 279 277 276 275 275 276 278 279 278 280 284 282 276 271 268 267 267 277 291 295 289 282 277 274 271 269 267 268 269 268 267 270 272 273 274 274 274 274 271 267 265 268 273 276 276
258 259 261 262 264 265 265 265 265 265 266 268 272 275 276 275 275 276 279 283 287 291 294 296 297 297 294 291 288 286 284 283 281 280 278 278 277 278 280 280 277 276 275 276 277 277 278 279 281 283 284 282 280 276 274 273 274 280 288 292 290 287 283 281 277 272 268 267 268 267 265 266 267 270 271 272 272 272 272 271 270 272 274 275 275
262 262 262 262 264 264 265 264 263 262 265 269 274 276 275 275 277 281 285 288 290 293 295 297 299 297 294 291 288 285 283 281 280 279 279 279 280 280 280 279 276 276 276 276 277 278 279 281 285 286 285 285 284 281 279 279 280 284 289 292 293 292 289 287 284 280 275 271 270 269 266 264 264 265 267 269 270 271 272 272 273 273 274 273 273
267 266 265 266 267 269 269 267 264 263 267 272 276 276 273 274 279 285 289 292 293 294 297 298 298 297 294 290 287 284 282 280 279 280 280 281 280 280 280 279 278 277 277 277 277 278 279 283 286 286 286 289 290 286 283 284 286 289 292 294 296 296 294 292 289 288 285 280 277 275 272 268 266 267 269 271 273 274 274 275 275 276 276 275 276
268 268 268 269 270 271 271 269 268 269 272 275 277 276 275 276 281 287 291 293 294 296 297 298 297 296 293 289 285 283 281 280 280 280 280 280 281 282 283 282 280 279 279 279 279 278 280 283 286 285 287 292 293 291 289 288 289 292 294 295 296 297 297 296 294 292 290 287 285 283 282 279 277 277 278 279 281 282 282 282 282 282 281 281 281
267 267 268 269 269 269 268 268 269 271 274 276 276 276 276 277 281 287 291 293 294 295 297 297 296 293 290 287 284 282 281 280 280 280 280 282 283 285 284 283 281 280 280 280 280 280 282 284 284 285 289 293 295 294 293 292 292 293 295 296 297 298 298 298 297 295 294 292 290 289 287 286 284 282 281 280 281 282 284 286 286 287 286 286 285
274 272 270 270 270 270 270 269 270 271 273 274 275 275 276 278 282 287 291 292 294 295 296 295 293 290 287 285 282 281 280 280 280 280 282 285 285 285 283 282 281 280 281 281 282 283 284 285 285 287 291 294 295 295 294 293 293 294 295 297 297 298 299 299 298 297 296 295 294 293 292 291 289 287 286 284 284 284 285 287 288 288 288 288 288
280 279 277 276 276 276 275 274 273 273 273 274 275 276 279 282 285 289 291 294 295 296 295 293 290 287 285 283 281 280 280 280 280 281 284 285 285 283 282 281 281 281 282 283 283 284 285 286 287 290 292 295 296 296 295 294 293 294 296 297 298 299 300 300 299 298 296 296 295 295 294 294 293 292 291 290 289 289 289 289 288 288 288 289 289
276 277 277 278 279 279 278 276 275 276 276 278 280 282 284 287 289 292 294 295 296 295 293 291 288 286 284 282 281 281 281 282 282 282 284 285 284 283 282 281 282 282 283 283 284 284 285 287 289 291 293 295 296 296 296 296 296 297 298 298 299 299 300 299 299 298 297 296 295 295 294 293 293 292 292 292 292 292 292 291 290 289 289 289 289
273 274 275 277 277 277 275 274 275 277 279 281 283 285 287 290 292 294 295 295 294 293 291 289 287 286 285 284 284 284 285 285 284 283 283 284 284 283 283 282 283 283 283 283 283 284 285 287 289 291 292 293 293 294 294 295 296 297 298 298 298 298 298 298 297 297 296 295 294 293 293 292 292 292 292 293 293 293 293 292 292 291 290 290 289
272 273 274 274 275 274 274 274 276 278 280 282 284 286 289 291 292 293 293 292 292 291 290 289 289 289 289 289 288 288 287 286 284 283 283 283 283 283 283 283 283 283 283 283 284 285 287 289 290 291 291 291 291 292 292 293 294 295 296 296 296 296 296 295 295 294 294 293 292 291 290 290 290 290 291 291 292 292 291 291 290 290 290 289 289
270 271 272 273 273 274 274 275 277 279 281 283 284 287 289 290 291 291 291 292 292 292 292 293 293 293 293 292 290 289 287 285 284 283 283 282 282 282 282 283 283 284 285 285 287 288 289 290 290 290 290 290 290 290 291 291 292 292 292 292 292 293 292 292 292 291 291 290 289 288 287 287 288 288 289 289 289 289 289 289 289 288 288 288 287
270 272 273 274 275 275 276 277 279 280 282 283 285 287 288 289 289 290 291 292 291 291 291 292 292 292 291 290 289 287 285 283 282 281 281 281 281 281 282 283 284 285 285 286 287 287 287 287 287 287 287 288 288 288 289 289 289 289 289 288 288 288 288 288 288 288 287 286 286 286 286 287 287 288 288 288 288 288 288 288 288 287 287 287 287
272 274 275 276 276 277 278 280 281 283 285 286 286 287 287 287 288 289 290 289 287 287 287 287 287 287 287 287 286 285 284 282 281 279 279 279 279 280 281 281 282 283 283 284 285 284 284 284 284 284 284 285 286 286 287 287 287 287 287 286 286 286 286 286 285 285 284 284 284 285 285 286 287 287 287 287 287 287 287 286 286 286 286 287 287
274 276 276 277 278 279 280 282 283 285 287 287 287 287 288 288 289 289 289 288 287 288 287 287 285 285 284 284 284 283 283 282 281 280 280 280 280 281 282 282 283 283 284 285 285 285 285 286 286 286 286 286 286 286 286 286 286 285 285 285 285 285 284 284 284 283 283 284 284 284 285 285 286 286 286 286 286 286 286 286 286 286 286 287 287
275 276 276 277 278 279 281 282 283 284 284 285 285 285 286 287 287 287 287 286 287 287 287 286 285 285 284 284 284 283 283 283 282 282 282 283 283 284 284 284 284 285 285 286 287 287 287 288 289 289 289 289 289 288 288 287 287 286 286 286 286 285 285 284 284 284 284 285 285 286 286 286 286 286 286 286 286 286 287 287 288 288 288 289 289
274 275 276 276 277 278 279 280 280 280 282 283 283 283 283 283 283 283 283 283 284 285 285 285 285 285 285 284 284 284 284 284 284 284 284 284 284 285 285 285 286 286 287 287 287 287 288 288 289 289 289 289 289 289 289 289 289 289 289 289 288 288 288 288 288 288 288 288 288 289 288 288 288 287 287 287 288 289 289 290 290 291 292 293 293
274 275 275 276 277 278 278 278 278 280 281 281 281 281 281 281 281 281 282 282 283 283 283 283 284 284 284 284 284 284 285 285 285 285 285 285 286 286 286 286 287 287 287 287 287 288 288 288 288 288 288 288 288 288 288 288 288 289 289 289 289 289 289 290 290 290 291 291 291 290 290 289 289 289 289 289 289 289 290 291 292 293 294 295 296